Tracking 31027 objects as of 19-Jul-2025
HD Live streaming from Space Station
objects crossing your sky now

STARLINK-32240

Track STARLINK-32240 now!
10-day predictions
STARLINK-32240 is classified as:


NORAD ID: 60438
Int'l Code: 2024-144P
Perigee: 481.5 km
Apogee: 483.2 km
Inclination: 53.2 °
Period: 94.1 minutes
Semi major axis: 6853 km
RCS: Unknown
Launch date: August 12, 2024
Source: United States (US)
Launch site: AIR FORCE EASTERN TEST RANGE (AFETR)
Your satellite tracking list
HAWK-4A
Track 1 satellite(s)




NASA's NSSDC Master Catalog

Two Line Element Set (TLE):
1 60438U 24144P   25199.29272479  .00003652  00000-0  13534-3 0  9999
2 60438  53.1587 225.7617 0001275  82.1729 277.9416 15.30204314 53463
Source of the keplerian elements: AFSPC